Year,Month,Day,Hour,Minute,Value (Times are PST for temperature in C)
2013,03,30,00,00,4.70
2013,03,30,00,01,4.70
2013,03,30,00,02,4.70
2013,03,30,00,03,4.70
2013,03,30,00,04,4.70
2013,03,30,00,05,4.60
2013,03,30,00,06,4.60
2013,03,30,00,07,4.60
2013,03,30,00,08,4.60
2013,03,30,00,09,4.60
2013,03,30,00,10,4.50
2013,03,30,00,11,4.50
2013,03,30,00,12,4.50
2013,03,30,00,13,4.50
2013,03,30,00,14,4.50
2013,03,30,00,15,4.50
2013,03,30,00,16,4.50
2013,03,30,00,17,4.50
2013,03,30,00,18,4.50
2013,03,30,00,19,4.40
2013,03,30,00,20,4.40
2013,03,30,00,21,4.40
2013,03,30,00,22,4.40
2013,03,30,00,23,4.40
2013,03,30,00,24,4.40
2013,03,30,00,25,4.40
2013,03,30,00,26,4.40
2013,03,30,00,27,4.40
2013,03,30,00,28,4.40
2013,03,30,00,29,4.40
2013,03,30,00,30,4.30
2013,03,30,00,31,4.30
2013,03,30,00,32,4.30
2013,03,30,00,33,4.30
2013,03,30,00,34,4.30
2013,03,30,00,35,4.30
2013,03,30,00,36,4.30
2013,03,30,00,37,4.30
2013,03,30,00,38,4.30
2013,03,30,00,39,4.30
2013,03,30,00,40,4.20
2013,03,30,00,41,4.20
2013,03,30,00,42,4.20
2013,03,30,00,43,4.20
2013,03,30,00,44,4.20
2013,03,30,00,45,4.20
2013,03,30,00,46,4.20
2013,03,30,00,47,4.20
2013,03,30,00,48,4.20
2013,03,30,00,49,4.20
2013,03,30,00,50,4.20
2013,03,30,00,51,4.10
2013,03,30,00,52,4.20
2013,03,30,00,53,4.10
2013,03,30,00,54,4.10
2013,03,30,00,55,4.10
2013,03,30,00,56,4.10
2013,03,30,00,57,4.10
2013,03,30,00,58,4.10
2013,03,30,00,59,4.10
2013,03,30,01,00,4.10
2013,03,30,01,01,4.10
2013,03,30,01,02,4.10
2013,03,30,01,03,4.10
2013,03,30,01,04,4.10
2013,03,30,01,05,4.10
2013,03,30,01,06,4.10
2013,03,30,01,07,4.10
2013,03,30,01,08,4.10
2013,03,30,01,09,4.20
2013,03,30,01,10,4.20
2013,03,30,01,11,4.20
2013,03,30,01,12,4.20
2013,03,30,01,13,4.20
2013,03,30,01,14,4.20
2013,03,30,01,15,4.20
2013,03,30,01,16,4.20
2013,03,30,01,17,4.10
2013,03,30,01,18,4.10
2013,03,30,01,19,4.10
2013,03,30,01,20,4.10
2013,03,30,01,21,4.10
2013,03,30,01,22,4.10
2013,03,30,01,23,4.10
2013,03,30,01,24,4.10
2013,03,30,01,25,4.10
2013,03,30,01,26,4.10
2013,03,30,01,27,4.00
2013,03,30,01,28,4.00
2013,03,30,01,29,4.00
2013,03,30,01,30,4.00
2013,03,30,01,31,4.00
2013,03,30,01,32,3.90
2013,03,30,01,33,3.90
2013,03,30,01,34,3.90
2013,03,30,01,35,3.90
2013,03,30,01,36,3.90
2013,03,30,01,37,3.90
2013,03,30,01,38,3.90
2013,03,30,01,39,3.90
2013,03,30,01,40,3.90
2013,03,30,01,41,3.90
2013,03,30,01,42,3.90
2013,03,30,01,43,3.90
2013,03,30,01,44,3.90
2013,03,30,01,45,3.90
2013,03,30,01,46,3.90
2013,03,30,01,47,3.90
2013,03,30,01,48,3.90
2013,03,30,01,49,3.90
2013,03,30,01,50,3.90
2013,03,30,01,51,3.90
2013,03,30,01,52,3.90
2013,03,30,01,53,3.90
2013,03,30,01,54,3.80
2013,03,30,01,55,3.80
2013,03,30,01,56,3.80
2013,03,30,01,57,3.80
2013,03,30,01,58,3.80
2013,03,30,01,59,3.80
2013,03,30,02,00,3.80
2013,03,30,02,01,3.80
2013,03,30,02,02,3.80
2013,03,30,02,03,3.80
2013,03,30,02,04,3.80
2013,03,30,02,05,3.80
2013,03,30,02,06,3.80
2013,03,30,02,07,3.80
2013,03,30,02,08,3.80
2013,03,30,02,09,3.80
2013,03,30,02,10,3.80
2013,03,30,02,11,3.80
2013,03,30,02,12,3.80
2013,03,30,02,13,3.80
2013,03,30,02,14,3.80
2013,03,30,02,15,3.80
2013,03,30,02,16,3.80
2013,03,30,02,17,3.80
2013,03,30,02,18,3.80
2013,03,30,02,19,3.80
2013,03,30,02,20,3.80
2013,03,30,02,21,3.80
2013,03,30,02,22,3.80
2013,03,30,02,23,3.80
2013,03,30,02,24,3.80
2013,03,30,02,25,3.80
2013,03,30,02,26,3.80
2013,03,30,02,27,3.80
2013,03,30,02,28,3.80
2013,03,30,02,29,3.80
2013,03,30,02,30,3.70
2013,03,30,02,31,3.70
2013,03,30,02,32,3.70
2013,03,30,02,33,3.70
2013,03,30,02,34,3.70
2013,03,30,02,35,3.70
2013,03,30,02,36,3.60
2013,03,30,02,37,3.60
2013,03,30,02,38,3.60
2013,03,30,02,39,3.60
2013,03,30,02,40,3.60
2013,03,30,02,41,3.60
2013,03,30,02,42,3.50
2013,03,30,02,43,3.50
2013,03,30,02,44,3.50
2013,03,30,02,45,3.50
2013,03,30,02,46,3.50
2013,03,30,02,47,3.50
2013,03,30,02,48,3.50
2013,03,30,02,49,3.50
2013,03,30,02,50,3.40
2013,03,30,02,51,3.40
2013,03,30,02,52,3.40
2013,03,30,02,53,3.40
2013,03,30,02,54,3.40
2013,03,30,02,55,3.40
2013,03,30,02,56,3.40
2013,03,30,02,57,3.40
2013,03,30,02,58,3.40
2013,03,30,02,59,3.40
2013,03,30,03,00,3.40
2013,03,30,03,01,3.40
2013,03,30,03,02,3.40
2013,03,30,03,03,3.40
2013,03,30,03,04,3.40
2013,03,30,03,05,3.40
2013,03,30,03,06,3.40
2013,03,30,03,07,3.40
2013,03,30,03,08,3.30
2013,03,30,03,09,3.30
2013,03,30,03,10,3.30
2013,03,30,03,11,3.30
2013,03,30,03,12,3.30
2013,03,30,03,13,3.30
2013,03,30,03,14,3.30
2013,03,30,03,15,3.30
2013,03,30,03,16,3.30
2013,03,30,03,17,3.30
2013,03,30,03,18,3.30
2013,03,30,03,19,3.30
2013,03,30,03,20,3.30
2013,03,30,03,21,3.30
2013,03,30,03,22,3.30
2013,03,30,03,23,3.30
2013,03,30,03,24,3.30
2013,03,30,03,25,3.30
2013,03,30,03,26,3.30
2013,03,30,03,27,3.20
2013,03,30,03,28,3.20
2013,03,30,03,29,3.20
2013,03,30,03,30,3.20
2013,03,30,03,31,3.20
2013,03,30,03,32,3.20
2013,03,30,03,33,3.20
2013,03,30,03,34,3.10
2013,03,30,03,35,3.10
2013,03,30,03,36,3.10
2013,03,30,03,37,3.10
2013,03,30,03,38,3.10
2013,03,30,03,39,3.10
2013,03,30,03,40,3.10
2013,03,30,03,41,3.10
2013,03,30,03,42,3.10
2013,03,30,03,43,3.10
2013,03,30,03,44,3.10
2013,03,30,03,45,3.10
2013,03,30,03,46,3.10
2013,03,30,03,47,3.10
2013,03,30,03,48,3.10
2013,03,30,03,49,3.10
2013,03,30,03,50,3.10
2013,03,30,03,51,3.10
2013,03,30,03,52,3.10
2013,03,30,03,53,3.20
2013,03,30,03,54,3.20
2013,03,30,03,55,3.20
2013,03,30,03,56,3.20
2013,03,30,03,57,3.20
2013,03,30,03,58,3.20
2013,03,30,03,59,3.20
2013,03,30,04,00,3.20
2013,03,30,04,01,3.20
2013,03,30,04,02,3.20
2013,03,30,04,03,3.20
2013,03,30,04,04,3.10
2013,03,30,04,05,3.10
2013,03,30,04,06,3.10
2013,03,30,04,07,3.10
2013,03,30,04,08,3.10
2013,03,30,04,09,3.10
2013,03,30,04,10,3.10
2013,03,30,04,11,3.10
2013,03,30,04,12,3.10
2013,03,30,04,13,3.10
2013,03,30,04,14,3.10
2013,03,30,04,15,3.10
2013,03,30,04,16,3.10
2013,03,30,04,17,3.10
2013,03,30,04,18,3.10
2013,03,30,04,19,3.10
2013,03,30,04,20,3.10
2013,03,30,04,21,3.10
2013,03,30,04,22,3.10
2013,03,30,04,23,3.10
2013,03,30,04,24,3.00
2013,03,30,04,25,3.00
2013,03,30,04,26,3.00
2013,03,30,04,27,3.00
2013,03,30,04,28,3.10
2013,03,30,04,29,3.00
2013,03,30,04,30,3.10
2013,03,30,04,31,3.10
2013,03,30,04,32,3.10
2013,03,30,04,33,3.10
2013,03,30,04,34,3.10
2013,03,30,04,35,3.10
2013,03,30,04,36,3.20
2013,03,30,04,37,3.20
2013,03,30,04,38,3.20
2013,03,30,04,39,3.20
2013,03,30,04,40,3.20
2013,03,30,04,41,3.20
2013,03,30,04,42,3.20
2013,03,30,04,43,3.20
2013,03,30,04,44,3.20
2013,03,30,04,45,3.20
2013,03,30,04,46,3.20
2013,03,30,04,47,3.20
2013,03,30,04,48,3.20
2013,03,30,04,49,3.20
2013,03,30,04,50,3.20
2013,03,30,04,51,3.20
2013,03,30,04,52,3.20
2013,03,30,04,53,3.20
2013,03,30,04,54,3.20
2013,03,30,04,55,3.20
2013,03,30,04,56,3.20
2013,03,30,04,57,3.10
2013,03,30,04,58,3.10
2013,03,30,04,59,3.10
2013,03,30,05,00,3.10
2013,03,30,05,01,3.10
2013,03,30,05,02,3.10
2013,03,30,05,03,3.10
2013,03,30,05,04,3.10
2013,03,30,05,05,3.10
2013,03,30,05,06,3.10
2013,03,30,05,07,3.00
2013,03,30,05,08,3.00
2013,03,30,05,09,3.00
2013,03,30,05,10,3.00
2013,03,30,05,11,3.00
2013,03,30,05,12,2.90
2013,03,30,05,13,2.90
2013,03,30,05,14,2.90
2013,03,30,05,15,2.90
2013,03,30,05,16,2.90
2013,03,30,05,17,2.90
2013,03,30,05,18,2.90
2013,03,30,05,19,2.90
2013,03,30,05,20,2.90
2013,03,30,05,21,2.90
2013,03,30,05,22,2.90
2013,03,30,05,23,2.90
2013,03,30,05,24,2.90
2013,03,30,05,25,2.80
2013,03,30,05,26,2.90
2013,03,30,05,27,2.80
2013,03,30,05,28,2.90
2013,03,30,05,29,2.80
2013,03,30,05,30,2.90
2013,03,30,05,31,2.80
2013,03,30,05,32,2.80
2013,03,30,05,33,2.80
2013,03,30,05,34,2.80
2013,03,30,05,35,2.80
2013,03,30,05,36,2.80
2013,03,30,05,37,2.80
2013,03,30,05,38,2.80
2013,03,30,05,39,2.80
2013,03,30,05,40,2.80
2013,03,30,05,41,2.80
2013,03,30,05,42,2.80
2013,03,30,05,43,2.80
2013,03,30,05,44,2.70
2013,03,30,05,45,2.70
2013,03,30,05,46,2.80
2013,03,30,05,47,2.80
2013,03,30,05,48,2.80
2013,03,30,05,49,2.80
2013,03,30,05,50,2.80
2013,03,30,05,51,2.80
2013,03,30,05,52,2.80
2013,03,30,05,53,2.80
2013,03,30,05,54,2.80
2013,03,30,05,55,2.80
2013,03,30,05,56,2.80
2013,03,30,05,57,2.80
2013,03,30,05,58,2.80
2013,03,30,05,59,2.80
2013,03,30,06,00,2.80
2013,03,30,06,01,2.70
2013,03,30,06,02,2.70
2013,03,30,06,03,2.70
2013,03,30,06,04,2.70
2013,03,30,06,05,2.70
2013,03,30,06,06,2.70
2013,03,30,06,07,2.70
2013,03,30,06,08,2.70
2013,03,30,06,09,2.70
2013,03,30,06,10,2.70
2013,03,30,06,11,2.70
2013,03,30,06,12,2.70
2013,03,30,06,13,2.70
2013,03,30,06,14,2.70
2013,03,30,06,15,2.80
2013,03,30,06,16,2.80
2013,03,30,06,17,2.80
2013,03,30,06,18,2.80
2013,03,30,06,19,2.80
2013,03,30,06,20,2.80
2013,03,30,06,21,2.70
2013,03,30,06,22,2.70
2013,03,30,06,23,2.70
2013,03,30,06,24,2.70
2013,03,30,06,25,2.70
2013,03,30,06,26,2.70
2013,03,30,06,27,2.70
2013,03,30,06,28,2.70
2013,03,30,06,29,2.70
2013,03,30,06,30,2.70
2013,03,30,06,31,2.70
2013,03,30,06,32,2.70
2013,03,30,06,33,2.70
2013,03,30,06,34,2.70
2013,03,30,06,35,2.70
2013,03,30,06,36,2.70
2013,03,30,06,37,2.60
2013,03,30,06,38,2.60
2013,03,30,06,39,2.60
2013,03,30,06,40,2.60
2013,03,30,06,41,2.60
2013,03,30,06,42,2.60
2013,03,30,06,43,2.60
2013,03,30,06,44,2.60
2013,03,30,06,45,2.60
2013,03,30,06,46,2.60
2013,03,30,06,47,2.60
2013,03,30,06,48,2.60
2013,03,30,06,49,2.70
2013,03,30,06,50,2.70
2013,03,30,06,51,2.70
2013,03,30,06,52,2.70
2013,03,30,06,53,2.70
2013,03,30,06,54,2.70
2013,03,30,06,55,2.70
2013,03,30,06,56,2.70
2013,03,30,06,57,2.70
2013,03,30,06,58,2.70
2013,03,30,06,59,2.70
2013,03,30,07,00,2.70
2013,03,30,07,01,2.70
2013,03,30,07,02,2.80
2013,03,30,07,03,2.80
2013,03,30,07,04,2.80
2013,03,30,07,05,2.80
2013,03,30,07,06,2.80
2013,03,30,07,07,2.80
2013,03,30,07,08,2.80
2013,03,30,07,09,2.80
2013,03,30,07,10,2.80
2013,03,30,07,11,2.80
2013,03,30,07,12,2.80
2013,03,30,07,13,2.80
2013,03,30,07,14,2.80
2013,03,30,07,15,2.80
2013,03,30,07,16,2.80
2013,03,30,07,17,2.80
2013,03,30,07,18,2.80
2013,03,30,07,19,2.80
2013,03,30,07,20,2.80
2013,03,30,07,21,2.80
2013,03,30,07,22,2.80
2013,03,30,07,23,2.80
2013,03,30,07,24,2.80
2013,03,30,07,25,2.80
2013,03,30,07,26,2.80
2013,03,30,07,27,2.80
2013,03,30,07,28,2.80
2013,03,30,07,29,2.80
2013,03,30,07,30,2.80
2013,03,30,07,31,2.80
2013,03,30,07,32,2.80
2013,03,30,07,33,2.80
2013,03,30,07,34,2.80
2013,03,30,07,35,2.80
2013,03,30,07,36,2.80
2013,03,30,07,37,2.80
2013,03,30,07,38,2.80
2013,03,30,07,39,2.80
2013,03,30,07,40,2.90
2013,03,30,07,41,2.90
2013,03,30,07,42,2.90
2013,03,30,07,43,2.90
2013,03,30,07,44,2.90
2013,03,30,07,45,2.90
2013,03,30,07,46,2.90
2013,03,30,07,47,2.90
2013,03,30,07,48,3.00
2013,03,30,07,49,3.00
2013,03,30,07,50,3.00
2013,03,30,07,51,3.10
2013,03,30,07,52,3.10
2013,03,30,07,53,3.10
2013,03,30,07,54,3.20
2013,03,30,07,55,3.20
2013,03,30,07,56,3.20
2013,03,30,07,57,3.30
2013,03,30,07,58,3.30
2013,03,30,07,59,3.30
2013,03,30,08,00,3.30
2013,03,30,08,01,3.30
2013,03,30,08,02,3.40
2013,03,30,08,03,3.40
2013,03,30,08,04,3.40
2013,03,30,08,05,3.50
2013,03,30,08,06,3.50
2013,03,30,08,07,3.60
2013,03,30,08,08,3.70
2013,03,30,08,09,3.70
2013,03,30,08,10,3.80
2013,03,30,08,11,3.80
2013,03,30,08,12,3.80
2013,03,30,08,13,3.90
2013,03,30,08,14,3.90
2013,03,30,08,15,4.00
2013,03,30,08,16,4.00
2013,03,30,08,17,4.00
2013,03,30,08,18,4.10
2013,03,30,08,19,4.10
2013,03,30,08,20,4.20
2013,03,30,08,21,4.20
2013,03,30,08,22,4.20
2013,03,30,08,23,4.30
2013,03,30,08,24,4.30
2013,03,30,08,25,4.40
2013,03,30,08,26,4.40
2013,03,30,08,27,4.50
2013,03,30,08,28,4.60
2013,03,30,08,29,4.60
2013,03,30,08,30,4.70
2013,03,30,08,31,4.70
2013,03,30,08,32,4.80
2013,03,30,08,33,4.80
2013,03,30,08,34,4.90
2013,03,30,08,35,5.00
2013,03,30,08,36,5.10
2013,03,30,08,37,5.20
2013,03,30,08,38,5.30
2013,03,30,08,39,5.40
2013,03,30,08,40,5.40
2013,03,30,08,41,5.60
2013,03,30,08,42,5.60
2013,03,30,08,43,5.70
2013,03,30,08,44,5.70
2013,03,30,08,45,5.70
2013,03,30,08,46,5.70
2013,03,30,08,47,5.70
2013,03,30,08,48,5.70
2013,03,30,08,49,5.60
2013,03,30,08,50,5.60
2013,03,30,08,51,5.60
2013,03,30,08,52,5.60
2013,03,30,08,53,5.60
2013,03,30,08,54,5.60
2013,03,30,08,55,5.60
2013,03,30,08,56,5.60
2013,03,30,08,57,5.60
2013,03,30,08,58,5.60
2013,03,30,08,59,5.70
2013,03,30,09,00,5.80
2013,03,30,09,01,5.90
2013,03,30,09,02,6.00
2013,03,30,09,03,6.10
2013,03,30,09,04,6.20
2013,03,30,09,05,6.20
2013,03,30,09,06,6.30
2013,03,30,09,07,6.30
2013,03,30,09,08,6.40
2013,03,30,09,09,6.50
2013,03,30,09,10,6.50
2013,03,30,09,11,6.60
2013,03,30,09,12,6.70
2013,03,30,09,13,6.90
2013,03,30,09,14,7.00
2013,03,30,09,15,7.00
2013,03,30,09,16,7.10
2013,03,30,09,17,7.10
2013,03,30,09,18,7.20
2013,03,30,09,19,7.20
2013,03,30,09,20,7.30
2013,03,30,09,21,7.30
2013,03,30,09,22,7.40
2013,03,30,09,23,7.50
2013,03,30,09,24,7.60
2013,03,30,09,25,7.70
2013,03,30,09,26,7.70
2013,03,30,09,27,7.80
2013,03,30,09,28,7.80
2013,03,30,09,29,7.80
2013,03,30,09,30,7.90
2013,03,30,09,31,7.90
2013,03,30,09,32,7.90
2013,03,30,09,33,7.90
2013,03,30,09,34,7.90
2013,03,30,09,35,7.90
2013,03,30,09,36,7.90
2013,03,30,09,37,7.90
2013,03,30,09,38,7.90
2013,03,30,09,39,7.90
2013,03,30,09,40,7.90
2013,03,30,09,41,7.90
2013,03,30,09,42,7.90
2013,03,30,09,43,7.90
2013,03,30,09,44,7.90
2013,03,30,09,45,7.90
2013,03,30,09,46,7.90
2013,03,30,09,47,8.00
2013,03,30,09,48,8.10
2013,03,30,09,49,8.10
2013,03,30,09,50,8.20
2013,03,30,09,51,8.20
2013,03,30,09,52,8.30
2013,03,30,09,53,8.40
2013,03,30,09,54,8.50
2013,03,30,09,55,8.50
2013,03,30,09,56,8.60
2013,03,30,09,57,8.70
2013,03,30,09,58,8.80
2013,03,30,09,59,8.90
2013,03,30,10,00,9.00
2013,03,30,10,01,9.00
2013,03,30,10,02,9.10
2013,03,30,10,03,9.20
2013,03,30,10,04,9.20
2013,03,30,10,05,9.30
2013,03,30,10,06,9.40
2013,03,30,10,07,9.50
2013,03,30,10,08,9.60
2013,03,30,10,09,9.60
2013,03,30,10,10,9.80
2013,03,30,10,11,9.90
2013,03,30,10,12,10.00
2013,03,30,10,13,10.10
2013,03,30,10,14,10.20
2013,03,30,10,15,10.30
2013,03,30,10,16,10.30
2013,03,30,10,17,10.40
2013,03,30,10,18,10.40
2013,03,30,10,19,10.50
2013,03,30,10,20,10.50
2013,03,30,10,21,10.60
2013,03,30,10,22,10.60
2013,03,30,10,23,10.50
2013,03,30,10,24,10.50
2013,03,30,10,25,10.40
2013,03,30,10,26,10.40
2013,03,30,10,27,10.40
2013,03,30,10,28,10.30
2013,03,30,10,29,10.30
2013,03,30,10,30,10.20
2013,03,30,10,31,10.20
2013,03,30,10,32,10.20
2013,03,30,10,33,10.20
2013,03,30,10,34,10.20
2013,03,30,10,35,10.20
2013,03,30,10,36,10.20
2013,03,30,10,37,10.20
2013,03,30,10,38,10.20
2013,03,30,10,39,10.20
2013,03,30,10,40,10.20
2013,03,30,10,41,10.20
2013,03,30,10,42,10.30
2013,03,30,10,43,10.30
2013,03,30,10,44,10.30
2013,03,30,10,45,10.30
2013,03,30,10,46,10.30
2013,03,30,10,47,10.30
2013,03,30,10,48,10.40
2013,03,30,10,49,10.40
2013,03,30,10,50,10.40
2013,03,30,10,51,10.40
2013,03,30,10,52,10.40
2013,03,30,10,53,10.40
2013,03,30,10,54,10.40
2013,03,30,10,55,10.40
2013,03,30,10,56,10.30
2013,03,30,10,57,10.30
2013,03,30,10,58,10.20
2013,03,30,10,59,10.20
2013,03,30,11,00,10.20
2013,03,30,11,01,10.10
2013,03,30,11,02,10.20
2013,03,30,11,03,10.20
2013,03,30,11,04,10.20
2013,03,30,11,05,10.20
2013,03,30,11,06,10.10
2013,03,30,11,07,10.10
2013,03,30,11,08,10.00
2013,03,30,11,09,10.00
2013,03,30,11,10,9.90
2013,03,30,11,11,9.90
2013,03,30,11,12,9.90
2013,03,30,11,13,9.80
2013,03,30,11,14,9.70
2013,03,30,11,15,9.70
2013,03,30,11,16,9.70
2013,03,30,11,17,9.60
2013,03,30,11,18,9.60
2013,03,30,11,19,9.70
2013,03,30,11,20,9.70
2013,03,30,11,21,9.80
2013,03,30,11,22,9.80
2013,03,30,11,23,9.80
2013,03,30,11,24,9.90
2013,03,30,11,25,9.90
2013,03,30,11,26,9.90
2013,03,30,11,27,9.90
2013,03,30,11,28,9.80
2013,03,30,11,29,9.80
2013,03,30,11,30,9.80
2013,03,30,11,31,9.80
2013,03,30,11,32,9.80
2013,03,30,11,33,9.80
2013,03,30,11,34,9.80
2013,03,30,11,35,9.70
2013,03,30,11,36,9.70
2013,03,30,11,37,9.70
2013,03,30,11,38,9.70
2013,03,30,11,39,9.60
2013,03,30,11,40,9.60
2013,03,30,11,41,9.70
2013,03,30,11,42,9.70
2013,03,30,11,43,9.70
2013,03,30,11,44,9.70
2013,03,30,11,45,9.70
2013,03,30,11,46,9.80
2013,03,30,11,47,9.80
2013,03,30,11,48,9.80
2013,03,30,11,49,9.80
2013,03,30,11,50,9.80
2013,03,30,11,51,9.80
2013,03,30,11,52,9.80
2013,03,30,11,53,9.90
2013,03,30,11,54,10.00
2013,03,30,11,55,10.00
2013,03,30,11,56,10.10
2013,03,30,11,57,10.10
2013,03,30,11,58,10.20
2013,03,30,11,59,10.30
2013,03,30,12,00,10.40
2013,03,30,12,01,10.40
2013,03,30,12,02,10.50
2013,03,30,12,03,10.50
2013,03,30,12,04,10.60
2013,03,30,12,05,10.70
2013,03,30,12,06,10.70
2013,03,30,12,07,10.80
2013,03,30,12,08,10.80
2013,03,30,12,09,10.80
2013,03,30,12,10,10.80
2013,03,30,12,11,10.80
2013,03,30,12,12,10.70
2013,03,30,12,13,10.60
2013,03,30,12,14,10.60
2013,03,30,12,15,10.50
2013,03,30,12,16,10.40
2013,03,30,12,17,10.40
2013,03,30,12,18,10.50
2013,03,30,12,19,10.50
2013,03,30,12,20,10.50
2013,03,30,12,21,10.50
2013,03,30,12,22,10.60
2013,03,30,12,23,10.60
2013,03,30,12,24,10.70
2013,03,30,12,25,10.70
2013,03,30,12,26,10.70
2013,03,30,12,27,10.80
2013,03,30,12,28,10.90
2013,03,30,12,29,11.00
2013,03,30,12,30,11.00
2013,03,30,12,31,11.10
2013,03,30,12,32,11.20
2013,03,30,12,33,11.20
2013,03,30,12,34,11.30
2013,03,30,12,35,11.40
2013,03,30,12,36,11.40
2013,03,30,12,37,11.50
2013,03,30,12,38,11.50
2013,03,30,12,39,11.60
2013,03,30,12,40,11.60
2013,03,30,12,41,11.60
2013,03,30,12,42,11.60
2013,03,30,12,43,11.60
2013,03,30,12,44,11.50
2013,03,30,12,45,11.50
2013,03,30,12,46,11.50
2013,03,30,12,47,11.40
2013,03,30,12,48,11.50
2013,03,30,12,49,11.50
2013,03,30,12,50,11.50
2013,03,30,12,51,11.50
2013,03,30,12,52,11.60
2013,03,30,12,53,11.60
2013,03,30,12,54,11.50
2013,03,30,12,55,11.50
2013,03,30,12,56,11.50
2013,03,30,12,57,11.50
2013,03,30,12,58,11.60
2013,03,30,12,59,11.60
2013,03,30,13,00,11.60
2013,03,30,13,01,11.60
2013,03,30,13,02,11.60
2013,03,30,13,03,11.70
2013,03,30,13,04,11.70
2013,03,30,13,05,11.70
2013,03,30,13,06,11.80
2013,03,30,13,07,11.80
2013,03,30,13,08,11.80
2013,03,30,13,09,11.80
2013,03,30,13,10,11.80
2013,03,30,13,11,11.80
2013,03,30,13,12,11.80
2013,03,30,13,13,11.80
2013,03,30,13,14,11.90
2013,03,30,13,15,11.90
2013,03,30,13,16,11.90
2013,03,30,13,17,11.90
2013,03,30,13,18,11.90
2013,03,30,13,19,11.90
2013,03,30,13,20,11.90
2013,03,30,13,21,11.90
2013,03,30,13,22,11.90
2013,03,30,13,23,11.90
2013,03,30,13,24,12.00
2013,03,30,13,25,12.10
2013,03,30,13,26,12.10
2013,03,30,13,27,12.20
2013,03,30,13,28,12.20
2013,03,30,13,29,12.20
2013,03,30,13,30,12.30
2013,03,30,13,31,12.40
2013,03,30,13,32,12.40
2013,03,30,13,33,12.50
2013,03,30,13,34,12.60
2013,03,30,13,35,12.70
2013,03,30,13,36,12.70
2013,03,30,13,37,12.80
2013,03,30,13,38,12.70
2013,03,30,13,39,12.80
2013,03,30,13,40,12.80
2013,03,30,13,41,12.80
2013,03,30,13,42,12.90
2013,03,30,13,43,12.90
2013,03,30,13,44,12.90
2013,03,30,13,45,13.00
2013,03,30,13,46,13.00
2013,03,30,13,47,13.00
2013,03,30,13,48,12.90
2013,03,30,13,49,12.90
2013,03,30,13,50,12.90
2013,03,30,13,51,13.00
2013,03,30,13,52,13.00
2013,03,30,13,53,13.10
2013,03,30,13,54,13.20
2013,03,30,13,55,13.30
2013,03,30,13,56,13.30
2013,03,30,13,57,13.30
2013,03,30,13,58,13.20
2013,03,30,13,59,13.20
2013,03,30,14,00,13.20
2013,03,30,14,01,13.20
2013,03,30,14,02,13.20
2013,03,30,14,03,13.30
2013,03,30,14,04,13.30
2013,03,30,14,05,13.40
2013,03,30,14,06,13.30
2013,03,30,14,07,13.20
2013,03,30,14,08,13.20
2013,03,30,14,09,13.20
2013,03,30,14,10,13.20
2013,03,30,14,11,13.20
2013,03,30,14,12,13.10
2013,03,30,14,13,13.10
2013,03,30,14,14,13.00
2013,03,30,14,15,13.00
2013,03,30,14,16,13.00
2013,03,30,14,17,13.00
2013,03,30,14,18,13.00
2013,03,30,14,19,13.10
2013,03,30,14,20,13.20
2013,03,30,14,21,13.20
2013,03,30,14,22,13.20
2013,03,30,14,23,13.10
2013,03,30,14,24,13.20
2013,03,30,14,25,13.20
2013,03,30,14,26,13.30
2013,03,30,14,27,13.30
2013,03,30,14,28,13.40
2013,03,30,14,29,13.40
2013,03,30,14,30,13.40
2013,03,30,14,31,13.30
2013,03,30,14,32,13.30
2013,03,30,14,33,13.30
2013,03,30,14,34,13.30
2013,03,30,14,35,13.30
2013,03,30,14,36,13.20
2013,03,30,14,37,13.20
2013,03,30,14,38,13.20
2013,03,30,14,39,13.20
2013,03,30,14,40,13.20
2013,03,30,14,41,13.20
2013,03,30,14,42,13.30
2013,03,30,14,43,13.30
2013,03,30,14,44,13.30
2013,03,30,14,45,13.30
2013,03,30,14,46,13.20
2013,03,30,14,47,13.10
2013,03,30,14,48,13.00
2013,03,30,14,49,12.80
2013,03,30,14,50,12.70
2013,03,30,14,51,12.60
2013,03,30,14,52,12.50
2013,03,30,14,53,12.40
2013,03,30,14,54,12.40
2013,03,30,14,55,12.50
2013,03,30,14,56,12.60
2013,03,30,14,57,12.60
2013,03,30,14,58,12.60
2013,03,30,14,59,12.60
2013,03,30,15,00,12.70
2013,03,30,15,01,12.80
2013,03,30,15,02,12.80
2013,03,30,15,03,12.80
2013,03,30,15,04,12.80
2013,03,30,15,05,12.80
2013,03,30,15,06,12.70
2013,03,30,15,07,12.70
2013,03,30,15,08,12.70
2013,03,30,15,09,12.70
2013,03,30,15,10,12.80
2013,03,30,15,11,12.70
2013,03,30,15,12,12.70
2013,03,30,15,13,12.70
2013,03,30,15,14,12.80
2013,03,30,15,15,12.80
2013,03,30,15,16,12.90
2013,03,30,15,17,13.00
2013,03,30,15,18,13.10
2013,03,30,15,19,13.00
2013,03,30,15,20,12.90
2013,03,30,15,21,12.90
2013,03,30,15,22,12.80
2013,03,30,15,23,12.80
2013,03,30,15,24,12.80
2013,03,30,15,25,12.90
2013,03,30,15,26,12.90
2013,03,30,15,27,13.00
2013,03,30,15,28,13.00
2013,03,30,15,29,13.10
2013,03,30,15,30,13.10
2013,03,30,15,31,13.10
2013,03,30,15,32,13.10
2013,03,30,15,33,13.10
2013,03,30,15,34,13.10
2013,03,30,15,35,13.10
2013,03,30,15,36,13.10
2013,03,30,15,37,13.10
2013,03,30,15,38,13.00
2013,03,30,15,39,12.90
2013,03,30,15,40,13.00
2013,03,30,15,41,13.00
2013,03,30,15,42,13.10
2013,03,30,15,43,13.00
2013,03,30,15,44,13.00
2013,03,30,15,45,13.00
2013,03,30,15,46,13.00
2013,03,30,15,47,13.10
2013,03,30,15,48,13.10
2013,03,30,15,49,13.20
2013,03,30,15,50,13.20
2013,03,30,15,51,13.20
2013,03,30,15,52,13.20
2013,03,30,15,53,13.30
2013,03,30,15,54,13.40
2013,03,30,15,55,13.50
2013,03,30,15,56,13.50
2013,03,30,15,57,13.60
2013,03,30,15,58,13.60
2013,03,30,15,59,13.70
2013,03,30,16,00,13.80
2013,03,30,16,01,13.80
2013,03,30,16,02,13.90
2013,03,30,16,03,13.90
2013,03,30,16,04,13.90
2013,03,30,16,05,13.90
2013,03,30,16,06,13.90
2013,03,30,16,07,13.80
2013,03,30,16,08,13.80
2013,03,30,16,09,13.80
2013,03,30,16,10,13.80
2013,03,30,16,11,13.80
2013,03,30,16,12,13.80
2013,03,30,16,13,13.80
2013,03,30,16,14,13.80
2013,03,30,16,15,13.80
2013,03,30,16,16,13.80
2013,03,30,16,17,13.80
2013,03,30,16,18,13.80
2013,03,30,16,19,13.80
2013,03,30,16,20,13.80
2013,03,30,16,21,13.90
2013,03,30,16,22,13.90
2013,03,30,16,23,14.00
2013,03,30,16,24,14.10
2013,03,30,16,25,14.20
2013,03,30,16,26,14.30
2013,03,30,16,27,14.40
2013,03,30,16,28,14.40
2013,03,30,16,29,14.50
2013,03,30,16,30,14.50
2013,03,30,16,31,14.50
2013,03,30,16,32,14.40
2013,03,30,16,33,14.40
2013,03,30,16,34,14.40
2013,03,30,16,35,14.40
2013,03,30,16,36,14.40
2013,03,30,16,37,14.40
2013,03,30,16,38,14.40
2013,03,30,16,39,14.40
2013,03,30,16,40,14.50
2013,03,30,16,41,14.50
2013,03,30,16,42,14.50
2013,03,30,16,43,14.50
2013,03,30,16,44,14.50
2013,03,30,16,45,14.50
2013,03,30,16,46,14.50
2013,03,30,16,47,14.60
2013,03,30,16,48,14.60
2013,03,30,16,49,14.70
2013,03,30,16,50,14.70
2013,03,30,16,51,14.70
2013,03,30,16,52,14.80
2013,03,30,16,53,14.80
2013,03,30,16,54,14.70
2013,03,30,16,55,14.70
2013,03,30,16,56,14.70
2013,03,30,16,57,14.60
2013,03,30,16,58,14.50
2013,03,30,16,59,14.40
2013,03,30,17,00,14.30
2013,03,30,17,01,14.30
2013,03,30,17,02,14.30
2013,03,30,17,03,14.20
2013,03,30,17,04,14.20
2013,03,30,17,05,14.20
2013,03,30,17,06,14.20
2013,03,30,17,07,14.20
2013,03,30,17,08,14.20
2013,03,30,17,09,14.10
2013,03,30,17,10,14.10
2013,03,30,17,11,14.10
2013,03,30,17,12,14.10
2013,03,30,17,13,14.10
2013,03,30,17,14,14.10
2013,03,30,17,15,14.10
2013,03,30,17,16,14.10
2013,03,30,17,17,14.10
2013,03,30,17,18,14.10
2013,03,30,17,19,14.10
2013,03,30,17,20,14.00
2013,03,30,17,21,14.10
2013,03,30,17,22,14.00
2013,03,30,17,23,14.00
2013,03,30,17,24,13.90
2013,03,30,17,25,13.90
2013,03,30,17,26,13.80
2013,03,30,17,27,13.80
2013,03,30,17,28,13.80
2013,03,30,17,29,13.80
2013,03,30,17,30,13.80
2013,03,30,17,31,13.80
2013,03,30,17,32,13.80
2013,03,30,17,33,13.80
2013,03,30,17,34,13.70
2013,03,30,17,35,13.70
2013,03,30,17,36,13.60
2013,03,30,17,37,13.60
2013,03,30,17,38,13.60
2013,03,30,17,39,13.60
2013,03,30,17,40,13.50
2013,03,30,17,41,13.60
2013,03,30,17,42,13.60
2013,03,30,17,43,13.60
2013,03,30,17,44,13.60
2013,03,30,17,45,13.60
2013,03,30,17,46,13.70
2013,03,30,17,47,13.70